Weather History for KSGJ - October, 2013

Change the Weather History Date:

Tuesday, October 1, 2013

  Actual Average (KJAX) Record (KJAX)
Temperature  
Mean Temperature 76 °F 75 °F  
Max Temperature 80 °F 84 °F 94 °F (1959)
Min Temperature 73 °F 66 °F 48 °F (1920)
Degree Days  
Heating Degree Days 0 0  
Month to date heating degree days 0  
Since 1 July heating degree days 0  
Cooling Degree Days 12 10  
Month to date cooling degree days 10  
Year to date cooling degree days 2396  
Growing Degree Days 26 (Base 50)    
Moisture  
Dew Point 65 °F    
Average Humidity 68    
Maximum Humidity 79    
Minimum Humidity 62    
Precipitation  
Precipitation 0.00 in 0.21 in 5.14 in (1890)
Month to date precipitation 0.21  
Year to date precipitation 43.76  
Snow  
Snow 0.00 in 0.00 in 0.00 in (2002)
Month to date snowfall 0.0  
Since 1 July snowfall 0.0  
Since 1 September snowfall 0.0  
Snow Depth -    
Sea Level Pressure  
Sea Level Pressure 30.08 in    
Wind  
Wind Speed 8 mph (NNE)    
Max Wind Speed 14 mph    
Max Gust Speed -    
Visibility 10 miles    
Events      
T = Trace of Precipitation, MM = Missing Value Source: NWS Daily Summary

Daily Weather History Graph

Daily Weather History Graph

Search for Another Location

Airport or City:

Trip Planner

Search our weather history database for the weather conditions in past years. The results will help you decide how hot, cold, wet, or windy it might be!

Date:

Astronomy

Oct. 01, 2013 Rise Set
Actual Time 7:18 AM EDT 7:10 PM EDT
Civil Twilight 6:54 AM EDT 7:34 PM EDT
Nautical Twilight 6:27 AM EDT 8:02 PM EDT
Astronomical Twilight 5:59 AM EDT 8:29 PM EDT
Moon 4:04 AM EDT (10/1) 5:03 PM EDT (10/1)
Length of Visible Light 12h 39m
Length of Day
11h 51m
Waning Crescent, 12% of the Moon is Illuminated
Oct 1
Waning Crescent
Oct 4
New
Oct 11
First Quarter
Oct 18
Full
Oct 26
Last Quarter

Hourly Weather History & Observations

Time (EDT) Temp. Heat Index Dew Point Humidity Pressure Visibility Wind Dir Wind Speed Gust Speed Precip Events Conditions
12:58 AM 73.9 °F - 64.0 °F 71% 30.06 in 10.0 mi ENE 8.1 mph - N/A   Mostly Cloudy
1:58 AM 75.0 °F - 64.9 °F 71% 30.05 in 10.0 mi East 6.9 mph - N/A   Mostly Cloudy
2:58 AM 75.0 °F - 64.9 °F 71% 30.04 in 10.0 mi ENE 5.8 mph - N/A   Overcast
3:58 AM 75.0 °F - 64.0 °F 69% 30.04 in 10.0 mi NE 3.5 mph - N/A   Overcast
4:58 AM 75.0 °F - 64.9 °F 71% 30.04 in 10.0 mi NE 4.6 mph - N/A   Overcast
5:58 AM 75.0 °F - 64.9 °F 71% 30.06 in 10.0 mi North 5.8 mph - N/A   Overcast
6:58 AM 73.0 °F - 66.0 °F 79% 30.07 in 10.0 mi NNW 3.5 mph - N/A   Mostly Cloudy
7:58 AM 75.0 °F - 64.9 °F 71% 30.08 in 10.0 mi NNE 5.8 mph - N/A   Mostly Cloudy
8:58 AM 77.0 °F - 64.9 °F 66% 30.10 in 10.0 mi NNE 10.4 mph - N/A   Overcast
9:58 AM 77.0 °F - 64.9 °F 66% 30.12 in 10.0 mi NNE 8.1 mph - N/A   Mostly Cloudy
10:58 AM 79.0 °F - 64.9 °F 62% 30.12 in 10.0 mi NNE 10.4 mph - N/A   Partly Cloudy
11:58 AM 80.1 °F 82.1 °F 66.0 °F 62% 30.12 in 10.0 mi NNE 13.8 mph - N/A   Mostly Cloudy
12:58 PM 79.0 °F - 66.0 °F 64% 30.11 in 10.0 mi NNE 12.7 mph - N/A   Mostly Cloudy
1:58 PM 79.0 °F - 64.9 °F 62% 30.09 in 10.0 mi NNE 13.8 mph - N/A   Partly Cloudy
2:50 PM 78.8 °F - 66.2 °F 65% 30.07 in 10.0 mi NNE 12.7 mph - N/A   Unknown
2:58 PM 79.0 °F - 66.0 °F 64% 30.07 in 10.0 mi NNE 11.5 mph - N/A   Partly Cloudy
3:58 PM 79.0 °F - 64.9 °F 62% 30.06 in 10.0 mi NNE 12.7 mph - N/A   Mostly Cloudy
4:58 PM 78.1 °F - 64.0 °F 62% 30.06 in 10.0 mi NNE 10.4 mph - N/A   Mostly Cloudy
5:58 PM 77.0 °F - 64.0 °F 64% 30.06 in 10.0 mi NNE 11.5 mph - N/A   Clear
6:58 PM 75.9 °F - 63.0 °F 64% 30.07 in 10.0 mi NNE 9.2 mph - N/A   Clear
7:58 PM 75.0 °F - 63.0 °F 66% 30.07 in 10.0 mi NNE 8.1 mph - N/A   Clear
8:58 PM 75.0 °F - 64.0 °F 69% 30.09 in 10.0 mi NE 9.2 mph - N/A   Clear
9:58 PM 73.9 °F - 64.0 °F 71% 30.12 in 10.0 mi NE 6.9 mph - N/A   Clear
10:58 PM 73.0 °F - 64.9 °F 76% 30.11 in 10.0 mi ENE 5.8 mph - N/A   Clear
11:58 PM 73.0 °F - 66.0 °F 79% 30.11 in 10.0 mi NE 5.8 mph - N/A   Clear